QPF
0.01 0.01 0.00 0.00 0.00 0.00 0.00 0.01 0.01 0.00 0.00 0.00 0.00 0.00 0.00 0.00 0.00 0.01 0.01 0.01 0.01 0.01 0.01 0.02 0.02 0.03 0.05 0.06 0.08 0.09 0.10 0.10 0.11 0.11 0.11 0.13 0.13 0.13
0.02 0.02 0.01 0.01 0.01 0.01 0.01 0.01 0.01 0.01 0.00 0.00 0.00 0.00 0.00 0.00 0.01 0.01 0.01 0.01 0.01 0.02 0.02 0.02 0.03 0.05 0.06 0.07 0.09 0.10 0.10 0.10 0.11 0.12 0.12 0.11 0.13 0.14
0.02 0.02 0.01 0.01 0.01 0.01 0.01 0.01 0.01 0.01 0.01 0.00 0.00 0.00 0.00 0.00 0.00 0.00 0.01 0.01 0.01 0.01 0.02 0.02 0.03 0.04 0.07 0.09 0.10 0.11 0.11 0.11 0.11 0.12 0.12 0.12 0.13 0.14
0.01 0.01 0.01 0.01 0.01 0.01 0.01 0.01 0.00 0.00 0.01 0.00 0.00 0.00 0.00 0.00 0.01 0.00 0.00 0.01 0.02 0.02 0.02 0.03 0.03 0.04 0.06 0.09 0.11 0.12 0.12 0.11 0.10 0.10 0.10 0.11 0.12 0.12
0.01 0.01 0.01 0.01 0.01 0.01 0.00 0.00 0.00 0.00 0.01 0.01 0.01 0.00 0.01 0.01 0.01 0.01 0.01 0.01 0.02 0.03 0.03 0.03 0.05 0.06 0.07 0.10 0.12 0.13 0.13 0.11 0.09 0.08 0.09 0.09 0.10 0.10
0.01 0.01 0.01 0.01 0.01 0.01 0.01 0.01 0.00 0.01 0.01 0.01 0.01 0.01 0.01 0.01 0.02 0.02 0.02 0.02 0.02 0.03 0.05 0.05 0.06 0.09 0.10 0.10 0.12 0.13 0.14 0.13 0.10 0.08 0.07 0.07 0.07 0.08
0.01 0.01 0.01 0.02 0.01 0.01 0.01 0.01 0.01 0.01 0.01 0.01 0.01 0.01 0.01 0.02 0.02 0.02 0.02 0.02 0.02 0.03 0.05 0.07 0.07 0.07 0.09 0.11 0.12 0.11 0.12 0.13 0.12 0.09 0.08 0.07 0.06 0.06
0.01 0.01 0.02 0.02 0.02 0.01 0.01 0.01 0.01 0.01 0.01 0.01 0.01 0.01 0.01 0.01 0.01 0.01 0.02 0.02 0.03 0.03 0.04 0.08 0.09 0.08 0.09 0.09 0.10 0.09 0.08 0.08 0.08 0.07 0.07 0.07 0.06 0.06
0.00 0.01 0.02 0.02 0.03 0.02 0.02 0.02 0.02 0.02 0.02 0.01 0.01 0.01 0.01 0.01 0.02 0.02 0.02 0.02 0.02 0.02 0.03 0.06 0.09 0.09 0.08 0.09 0.10 0.09 0.07 0.06 0.06 0.06 0.05 0.06 0.05 0.05
0.00 0.01 0.02 0.03 0.03 0.03 0.03 0.03 0.04 0.03 0.02 0.01 0.01 0.01 0.02 0.03 0.03 0.03 0.03 0.03 0.04 0.04 0.04 0.05 0.07 0.08 0.07 0.06 0.08 0.08 0.08 0.07 0.06 0.06 0.05 0.04 0.04 0.04
0.00 0.02 0.03 0.03 0.03 0.04 0.03 0.03 0.04 0.06 0.04 0.03 0.02 0.02 0.03 0.04 0.04 0.05 0.04 0.04 0.06 0.07 0.05 0.05 0.05 0.06 0.06 0.05 0.04 0.05 0.06 0.05 0.04 0.03 0.03 0.03 0.02 0.02
0.00 0.02 0.05 0.06 0.06 0.05 0.04 0.03 0.03 0.05 0.05 0.03 0.02 0.03 0.03 0.04 0.06 0.05 0.04 0.03 0.03 0.06 0.06 0.04 0.04 0.04 0.05 0.06 0.04 0.02 0.02 0.02 0.02 0.02 0.02 0.02 0.02 0.01
0.01 0.02 0.06 0.08 0.09 0.07 0.06 0.04 0.03 0.04 0.05 0.04 0.03 0.03 0.04 0.05 0.07 0.07 0.07 0.05 0.03 0.03 0.03 0.03 0.04 0.03 0.03 0.04 0.04 0.03 0.02 0.01 0.01 0.01 0.01 0.01 0.01 0.01
0.02 0.02 0.04 0.09 0.13 0.13 0.09 0.06 0.05 0.05 0.04 0.04 0.04 0.05 0.05 0.06 0.08 0.09 0.08 0.08 0.08 0.07 0.04 0.03 0.04 0.03 0.02 0.02 0.02 0.02 0.02 0.01 0.01 0.01 0.01 0.01 0.00 0.00
0.03 0.03 0.06 0.10 0.14 0.17 0.16 0.09 0.05 0.05 0.06 0.05 0.05 0.06 0.06 0.06 0.07 0.09 0.10 0.10 0.10 0.11 0.09 0.05 0.03 0.03 0.02 0.02 0.01 0.01 0.01 0.01 0.01 0.00 0.00 0.00 0.00 0.00
0.04 0.06 0.10 0.15 0.18 0.21 0.22 0.14 0.08 0.06 0.07 0.06 0.06 0.06 0.06 0.06 0.07 0.09 0.10 0.11 0.12 0.11 0.10 0.08 0.05 0.03 0.03 0.02 0.01 0.01 0.00 0.00 0.00 0.00 0.00 0.00 0.00 0.00
0.05 0.08 0.11 0.17 0.23 0.24 0.23 0.18 0.14 0.10 0.09 0.08 0.07 0.06 0.06 0.07 0.08 0.08 0.08 0.08 0.09 0.09 0.08 0.07 0.05 0.04 0.03 0.02 0.01 0.00 0.00 0.00 0.00 0.00 0.00 0.00 0.00 0.00
0.07 0.09 0.11 0.18 0.26 0.28 0.26 0.22 0.19 0.14 0.10 0.09 0.08 0.07 0.06 0.07 0.07 0.07 0.06 0.06 0.06 0.06 0.05 0.04 0.03 0.02 0.02 0.02 0.01 0.00 0.00 0.00 0.00 0.00 0.00 0.00 0.00 0.00
0.08 0.11 0.15 0.19 0.25 0.31 0.26 0.22 0.21 0.15 0.11 0.09 0.08 0.07 0.06 0.06 0.06 0.05 0.05 0.05 0.04 0.04 0.03 0.02 0.01 0.01 0.01 0.01 0.01 0.01 0.00 0.00 0.00 0.00 0.00 0.00 0.00 0.00
0.12 0.16 0.18 0.20 0.25 0.26 0.22 0.19 0.18 0.14 0.10 0.08 0.07 0.06 0.06 0.05 0.05 0.04 0.04 0.03 0.03 0.02 0.02 0.02 0.01 0.01 0.01 0.00 0.00 0.00 0.00 0.00 0.00 0.00 0.00 0.00 0.00 0.00
0.16 0.19 0.19 0.20 0.22 0.19 0.15 0.16 0.16 0.11 0.07 0.05 0.05 0.05 0.05 0.05 0.04 0.04 0.03 0.03 0.03 0.02 0.01 0.01 0.01 0.00 0.00 0.00 0.00 0.00 0.00 0.00 0.00 0.00 0.00 0.00 0.00 0.00
0.17 0.18 0.17 0.17 0.16 0.14 0.11 0.10 0.11 0.09 0.05 0.04 0.04 0.04 0.04 0.03 0.04 0.04 0.03 0.02 0.02 0.02 0.01 0.01 0.00 0.00 0.00 0.00 0.00 0.00 0.00 0.00 0.00 0.00 0.00 0.00 0.00 0.00
0.15 0.15 0.13 0.12 0.11 0.11 0.09 0.07 0.07 0.06 0.04 0.03 0.03 0.03 0.02 0.02 0.03 0.03 0.03 0.02 0.01 0.01 0.01 0.00 0.00 0.00 0.00 0.00 0.00 0.00 0.00 0.00 0.00 0.00 0.00 0.00 0.00 0.00
MSLP
1009.86 1010.12 1010.41 1010.70 1010.98 1011.22 1011.40 1011.52 1011.57 1011.56 1011.48 1011.35 1011.16 1010.92 1010.65 1010.35 1010.03 1009.71 1009.41 1009.13 1008.92 1008.76 1008.68 1008.68 1008.75 1008.90 1009.12 1009.39 1009.73 1010.12 1010.55 1011.02 1011.51 1012.03 1012.55 1013.05 1013.53 1013.98
1009.43 1009.61 1009.81 1010.03 1010.24 1010.44 1010.62 1010.76 1010.87 1010.92 1010.93 1010.88 1010.77 1010.60 1010.37 1010.08 1009.76 1009.42 1009.07 1008.76 1008.49 1008.29 1008.17 1008.13 1008.18 1008.30 1008.49 1008.74 1009.06 1009.42 1009.82 1010.27 1010.75 1011.25 1011.76 1012.27 1012.75 1013.20
1009.02 1009.09 1009.19 1009.30 1009.43 1009.57 1009.72 1009.86 1010.01 1010.13 1010.22 1010.27 1010.26 1010.17 1010.00 1009.76 1009.46 1009.12 1008.76 1008.42 1008.12 1007.89 1007.74 1007.68 1007.70 1007.80 1007.98 1008.22 1008.51 1008.85 1009.23 1009.66 1010.12 1010.61 1011.12 1011.63 1012.12 1012.58
1008.59 1008.56 1008.55 1008.55 1008.59 1008.66 1008.77 1008.91 1009.08 1009.27 1009.44 1009.59 1009.67 1009.68 1009.60 1009.42 1009.16 1008.85 1008.50 1008.15 1007.84 1007.60 1007.44 1007.37 1007.39 1007.49 1007.66 1007.89 1008.17 1008.49 1008.85 1009.25 1009.70 1010.18 1010.68 1011.19 1011.70 1012.18
1008.12 1008.01 1007.91 1007.82 1007.78 1007.79 1007.86 1007.99 1008.18 1008.42 1008.66 1008.89 1009.07 1009.17 1009.17 1009.07 1008.87 1008.60 1008.28 1007.97 1007.68 1007.45 1007.31 1007.26 1007.30 1007.41 1007.59 1007.82 1008.09 1008.40 1008.74 1009.12 1009.54 1010.00 1010.50 1011.01 1011.53 1012.03
1007.61 1007.44 1007.28 1007.13 1007.03 1007.00 1007.04 1007.17 1007.37 1007.64 1007.93 1008.23 1008.48 1008.66 1008.73 1008.70 1008.57 1008.36 1008.10 1007.83 1007.60 1007.42 1007.33 1007.33 1007.42 1007.57 1007.78 1008.03 1008.31 1008.60 1008.93 1009.28 1009.68 1010.11 1010.59 1011.09 1011.62 1012.13
1007.03 1006.85 1006.67 1006.50 1006.37 1006.32 1006.34 1006.46 1006.67 1006.95 1007.27 1007.60 1007.90 1008.12 1008.25 1008.28 1008.21 1008.06 1007.88 1007.69 1007.53 1007.45 1007.44 1007.52 1007.69 1007.91 1008.18 1008.47 1008.77 1009.07 1009.38 1009.71 1010.07 1010.48 1010.92 1011.41 1011.93 1012.45
1006.42 1006.26 1006.08 1005.93 1005.81 1005.75 1005.77 1005.88 1006.08 1006.35 1006.66 1006.99 1007.29 1007.53 1007.69 1007.75 1007.73 1007.66 1007.55 1007.45 1007.40 1007.43 1007.54 1007.74 1008.02 1008.35 1008.70 1009.05 1009.39 1009.71 1010.02 1010.33 1010.66 1011.03 1011.44 1011.90 1012.40 1012.92
1005.78 1005.66 1005.53 1005.40 1005.30 1005.25 1005.27 1005.37 1005.54 1005.78 1006.06 1006.35 1006.62 1006.84 1006.99 1007.07 1007.09 1007.07 1007.05 1007.05 1007.12 1007.28 1007.54 1007.88 1008.30 1008.75 1009.21 1009.65 1010.05 1010.41 1010.74 1011.04 1011.35 1011.68 1012.06 1012.49 1012.96 1013.47
1005.13 1005.06 1004.98 1004.89 1004.82 1004.79 1004.80 1004.88 1005.01 1005.19 1005.40 1005.63 1005.84 1006.01 1006.14 1006.21 1006.25 1006.28 1006.34 1006.45 1006.65 1006.95 1007.36 1007.86 1008.43 1009.02 1009.61 1010.16 1010.64 1011.06 1011.41 1011.73 1012.02 1012.33 1012.68 1013.08 1013.52 1014.01
1004.50 1004.47 1004.42 1004.38 1004.33 1004.30 1004.30 1004.34 1004.41 1004.53 1004.66 1004.81 1004.94 1005.06 1005.14 1005.20 1005.25 1005.33 1005.46 1005.67 1005.99 1006.43 1006.99 1007.65 1008.37 1009.11 1009.83 1010.50 1011.08 1011.56 1011.96 1012.30 1012.61 1012.91 1013.24 1013.61 1014.04 1014.50
1003.89 1003.88 1003.86 1003.83 1003.79 1003.75 1003.72 1003.72 1003.73 1003.78 1003.83 1003.90 1003.96 1004.02 1004.06 1004.11 1004.18 1004.29 1004.49 1004.79 1005.23 1005.80 1006.49 1007.29 1008.15 1009.02 1009.87 1010.65 1011.32 1011.89 1012.35 1012.73 1013.06 1013.37 1013.69 1014.06 1014.47 1014.93
1003.31 1003.30 1003.28 1003.24 1003.19 1003.13 1003.07 1003.01 1002.98 1002.96 1002.95 1002.95 1002.96 1002.98 1003.00 1003.05 1003.14 1003.30 1003.56 1003.94 1004.47 1005.15 1005.95 1006.86 1007.83 1008.81 1009.76 1010.63 1011.39 1012.04 1012.56 1013.00 1013.36 1013.70 1014.04 1014.41 1014.82 1015.27
1002.78 1002.75 1002.70 1002.64 1002.55 1002.46 1002.36 1002.27 1002.19 1002.12 1002.08 1002.05 1002.03 1002.04 1002.07 1002.13 1002.26 1002.47 1002.79 1003.25 1003.85 1004.60 1005.48 1006.47 1007.51 1008.56 1009.58 1010.52 1011.35 1012.06 1012.65 1013.14 1013.55 1013.93 1014.30 1014.68 1015.10 1015.56
1002.31 1002.25 1002.16 1002.06 1001.93 1001.80 1001.67 1001.55 1001.44 1001.36 1001.31 1001.28 1001.28 1001.31 1001.37 1001.48 1001.66 1001.93 1002.31 1002.82 1003.47 1004.27 1005.19 1006.20 1007.28 1008.36 1009.42 1010.39 1011.27 1012.02 1012.66 1013.19 1013.66 1014.07 1014.48 1014.89 1015.33 1015.80
1001.94 1001.83 1001.70 1001.55 1001.39 1001.22 1001.07 1000.93 1000.83 1000.76 1000.72 1000.73 1000.77 1000.85 1000.97 1001.15 1001.39 1001.72 1002.15 1002.70 1003.38 1004.19 1005.12 1006.13 1007.20 1008.27 1009.32 1010.30 1011.18 1011.96 1012.63 1013.20 1013.71 1014.16 1014.60 1015.05 1015.51 1015.99
1001.68 1001.53 1001.36 1001.17 1000.98 1000.80 1000.63 1000.50 1000.42 1000.38 1000.39 1000.45 1000.56 1000.71 1000.91 1001.16 1001.46 1001.85 1002.32 1002.90 1003.59 1004.39 1005.29 1006.26 1007.28 1008.32 1009.33 1010.27 1011.14 1011.91 1012.59 1013.19 1013.72 1014.21 1014.68 1015.15 1015.63 1016.12
1001.57 1001.39 1001.19 1000.98 1000.77 1000.58 1000.43 1000.32 1000.27 1000.28 1000.35 1000.48 1000.66 1000.88 1001.15 1001.47 1001.83 1002.26 1002.77 1003.35 1004.03 1004.80 1005.65 1006.57 1007.52 1008.48 1009.43 1010.32 1011.14 1011.89 1012.56 1013.16 1013.70 1014.20 1014.69 1015.18 1015.67 1016.18
1001.60 1001.41 1001.20 1000.98 1000.77 1000.59 1000.46 1000.38 1000.37 1000.44 1000.57 1000.76 1001.00 1001.30 1001.63 1002.00 1002.41 1002.87 1003.38 1003.96 1004.62 1005.34 1006.13 1006.97 1007.84 1008.73 1009.59 1010.41 1011.18 1011.89 1012.53 1013.11 1013.64 1014.15 1014.64 1015.13 1015.62 1016.13
1001.77 1001.58 1001.37 1001.16 1000.96 1000.81 1000.70 1000.67 1000.70 1000.81 1000.99 1001.24 1001.54 1001.88 1002.25 1002.65 1003.09 1003.56 1004.07 1004.63 1005.25 1005.93 1006.65 1007.42 1008.21 1009.00 1009.78 1010.53 1011.23 1011.88 1012.48 1013.03 1013.54 1014.04 1014.51 1014.99 1015.48 1015.97
1002.01 1001.83 1001.64 1001.45 1001.28 1001.16 1001.10 1001.10 1001.18 1001.33 1001.55 1001.83 1002.16 1002.53 1002.93 1003.34 1003.79 1004.25 1004.75 1005.29 1005.87 1006.49 1007.15 1007.85 1008.56 1009.27 1009.97 1010.65 1011.28 1011.87 1012.42 1012.93 1013.41 1013.87 1014.32 1014.77 1015.23 1015.69
1002.28 1002.12 1001.95 1001.79 1001.66 1001.58 1001.55 1001.60 1001.72 1001.91 1002.16 1002.46 1002.80 1003.18 1003.58 1004.00 1004.43 1004.89 1005.37 1005.88 1006.42 1007.00 1007.61 1008.24 1008.88 1009.52 1010.15 1010.75 1011.32 1011.85 1012.34 1012.80 1013.23 1013.65 1014.06 1014.47 1014.90 1015.33
1002.51 1002.36 1002.22 1002.09 1002.00 1001.97 1001.99 1002.08 1002.23 1002.45 1002.72 1003.04 1003.39 1003.76 1004.16 1004.57 1004.99 1005.43 1005.89 1006.37 1006.89 1007.42 1007.99 1008.56 1009.15 1009.73 1010.29 1010.83 1011.33 1011.80 1012.24 1012.64 1013.02 1013.39 1013.75 1014.12 1014.49 1014.88
Thickness
5670 5671 5673 5676 5677 5678 5680 5681 5681 5681 5685 5690 5694 5699 5701 5703 5705 5707 5709 5711 5712 5714 5715 5716 5717 5718 5719 5720 5721 5721 5721 5721 5721 5721 5720 5721 5721 5721
5659 5661 5664 5667 5670 5671 5673 5675 5677 5679 5681 5685 5688 5692 5694 5697 5699 5701 5703 5705 5707 5709 5711 5712 5713 5715 5715 5716 5717 5717 5717 5717 5717 5717 5717 5717 5718 5718
5647 5651 5654 5657 5660 5663 5665 5668 5670 5673 5676 5680 5681 5685 5687 5690 5693 5695 5697 5699 5701 5703 5705 5707 5709 5710 5711 5711 5711 5711 5712 5712 5712 5712 5712 5713 5714 5714
5635 5639 5643 5647 5651 5654 5657 5661 5664 5668 5670 5673 5675 5677 5680 5683 5686 5688 5690 5692 5694 5696 5698 5700 5702 5703 5704 5704 5705 5705 5705 5705 5705 5705 5706 5706 5707 5707
5621 5626 5632 5636 5640 5644 5648 5653 5657 5661 5664 5667 5669 5671 5673 5676 5678 5680 5682 5684 5686 5687 5690 5692 5693 5694 5695 5696 5696 5697 5697 5697 5697 5698 5698 5698 5698 5698
5606 5612 5618 5624 5630 5635 5639 5644 5648 5652 5656 5659 5662 5664 5666 5669 5671 5672 5674 5676 5677 5679 5680 5682 5683 5684 5685 5686 5687 5687 5687 5687 5687 5687 5688 5688 5688 5688
5591 5597 5604 5611 5618 5624 5630 5635 5639 5644 5648 5652 5655 5657 5660 5662 5664 5666 5666 5667 5668 5669 5671 5672 5673 5673 5673 5674 5674 5675 5676 5676 5676 5677 5677 5677 5677 5677
5575 5582 5590 5598 5606 5613 5620 5626 5632 5636 5641 5645 5649 5652 5656 5658 5659 5660 5660 5660 5659 5660 5662 5661 5662 5661 5661 5661 5662 5664 5665 5666 5665 5666 5665 5665 5665 5666
5562 5568 5576 5586 5593 5601 5609 5616 5623 5629 5635 5640 5644 5649 5652 5654 5654 5654 5655 5655 5654 5653 5654 5650 5649 5649 5648 5648 5650 5652 5653 5654 5654 5654 5654 5653 5654 5654
5553 5557 5563 5572 5580 5588 5596 5604 5613 5620 5627 5633 5639 5644 5647 5648 5650 5651 5650 5647 5645 5644 5646 5642 5639 5637 5636 5636 5638 5640 5641 5642 5642 5642 5642 5642 5642 5642
5545 5549 5553 5560 5568 5575 5584 5593 5602 5610 5617 5624 5631 5636 5639 5641 5643 5643 5642 5641 5638 5636 5637 5636 5630 5627 5625 5624 5625 5627 5629 5630 5631 5631 5631 5631 5630 5630
5539 5542 5546 5551 5557 5563 5573 5582 5592 5601 5608 5615 5621 5627 5631 5634 5637 5639 5640 5639 5636 5631 5630 5629 5625 5623 5617 5613 5614 5615 5617 5618 5619 5619 5620 5620 5620 5620
5534 5537 5540 5543 5548 5555 5563 5574 5584 5592 5600 5607 5614 5620 5624 5628 5631 5633 5635 5636 5635 5632 5628 5626 5621 5619 5617 5609 5605 5605 5607 5607 5608 5608 5608 5609 5609 5611
5529 5532 5534 5536 5541 5548 5556 5566 5573 5581 5591 5599 5606 5613 5618 5622 5625 5627 5628 5628 5629 5629 5626 5625 5620 5617 5614 5608 5602 5598 5598 5598 5599 5600 5599 5598 5599 5599
5524 5526 5528 5530 5535 5542 5550 5558 5566 5576 5585 5593 5601 5607 5611 5615 5617 5618 5618 5618 5618 5618 5617 5618 5617 5612 5611 5607 5601 5596 5593 5591 5591 5592 5592 5592 5591 5591
5518 5520 5522 5525 5530 5537 5545 5554 5563 5573 5581 5589 5594 5598 5602 5606 5609 5612 5612 5611 5609 5607 5606 5608 5608 5607 5603 5600 5598 5593 5590 5588 5585 5585 5585 5584 5584 5584
5514 5516 5519 5524 5529 5535 5543 5551 5559 5567 5574 5581 5587 5591 5595 5599 5601 5603 5605 5605 5604 5601 5598 5597 5597 5597 5596 5595 5590 5588 5586 5583 5581 5580 5580 5578 5577 5577
5510 5514 5517 5522 5527 5534 5541 5548 5556 5563 5570 5576 5581 5586 5590 5593 5594 5596 5598 5599 5598 5596 5593 5592 5591 5589 5586 5582 5583 5583 5581 5579 5576 5575 5576 5575 5572 5570
5509 5512 5516 5520 5525 5533 5539 5546 5552 5559 5565 5571 5576 5580 5583 5586 5588 5589 5590 5591 5590 5589 5588 5588 5588 5588 5585 5581 5575 5576 5577 5574 5572 5571 5570 5570 5569 5566
5509 5512 5515 5519 5524 5531 5537 5544 5549 5555 5560 5566 5571 5574 5578 5581 5582 5583 5584 5585 5584 5583 5581 5581 5582 5584 5584 5581 5576 5571 5570 5571 5569 5567 5564 5561 5560 5558
5510 5513 5517 5521 5526 5532 5537 5543 5548 5553 5558 5563 5567 5569 5573 5576 5577 5578 5579 5576 5579 5578 5578 5576 5574 5575 5575 5574 5571 5567 5564 5564 5565 5565 5561 5559 5558 5556
5513 5516 5520 5524 5529 5534 5538 5543 5547 5551 5556 5560 5564 5567 5570 5572 5573 5573 5574 5574 5574 5574 5572 5568 5567 5569 5571 5571 5569 5565 5561 5558 5557 5557 5557 5558 5556 5555
5516 5520 5524 5527 5531 5536 5541 5545 5549 5552 5556 5560 5563 5565 5567 5568 5569 5570 5570 5570 5569 5568 5566 5564 5563 5564 5565 5565 5563 5561 5558 5556 5554 5553 5551 5550 5550 5549